Tracking 20621 objects as of 1-Apr-2020
HD Live streaming from Space Station
objects crossing your sky now

USA 294

Track USA 294 now!
10-day predictions
USA 294 is classified as:


NORAD ID: 45110
Int'l Code: 2020-007A
Perigee: 586.0 km
Apogee: 601.5 km
Inclination: 70.0 °
Period: 96.4 minutes
Semi major axis: 6964 km
RCS: Unknown
Launch date: January 31, 2020
Source: United States (US)
Launch site: Rocket Lab Launch Complex (RLLC)

USA 294 (NROL-151) is a classified satellite launched by Rocket Lab for the U.S. National Reconnaissance Office.
aabbcc
Your satellite tracking list
Your tracking list is empty




NASA's NSSDC Master Catalog

Two Line Element Set (TLE):
1 45110U 20007A   20089.88526619 0.00001500  00000-0  14150-3 0    07
2 45110  69.9935   8.6791 0011117 258.5658 101.4342 14.93634841    03
Source of the keplerian elements: McCants